EN

Hourly Weather Abay (Tyulkubasskiy rayon)

Today, 25 November, Wednesday

Time Temperature Precipitation Wind Pressure Humidity
00:00 -2°C° 0 mm 1 mps 711 mmHg 48%
01:00 -2°C° 0 mm 1 mps 711 mmHg 49%
02:00 -2°C° 0 mm 1 mps 711 mmHg 49%
03:00 -2°C° 0 mm 1 mps 711 mmHg 49%
04:00 -2°C° 0 mm 1 mps 711 mmHg 48%
05:00 -2°C° 0 mm 1 mps 711 mmHg 49%
06:00 -2°C° 0 mm 1 mps 711 mmHg 50%
07:00 -2°C° 0 mm 1 mps 711 mmHg 50%
08:00 -2°C° 0 mm 1 mps 711 mmHg 51%
09:00 -1°C° 0 mm 1 mps 712 mmHg 54%
10:00 0°C° 0 mm 0 mps 712 mmHg 58%
11:00 +1°C° 0 mm 0 mps 712 mmHg 60%
12:00 +1°C° 0 mm 0 mps 712 mmHg 62%
13:00 +2°C° 0 mm 0 mps 712 mmHg 64%
14:00 +2°C° 0 mm 0 mps 712 mmHg 66%
15:00 +1°C° 0 mm 0 mps 712 mmHg 66%
16:00 +1°C° 0 mm 1 mps 712 mmHg 65%
17:00 0°C° 0 mm 1 mps 712 mmHg 64%
18:00 0°C° 0.1 mm 1 mps 713 mmHg 71%
19:00 0°C° 0.1 mm 1 mps 713 mmHg 79%
20:00 0°C° 0.1 mm 1 mps 713 mmHg 86%
21:00 0°C° 0 mm 1 mps 713 mmHg 87%
22:00 0°C° 0 mm 1 mps 713 mmHg 87%
23:00 -1°C° 0 mm 1 mps 713 mmHg 88%

Tomorrow, 26 November, Thursday

Time Temperature Precipitation Wind Pressure Humidity
00:00 -1°C° 0 mm 1 mps 713 mmHg 87%
01:00 -1°C° 0 mm 1 mps 713 mmHg 85%
02:00 -1°C° 0 mm 1 mps 712 mmHg 84%
03:00 -2°C° 0 mm 1 mps 713 mmHg 81%
04:00 -2°C° 0 mm 1 mps 713 mmHg 78%
05:00 -4°C° 0 mm 2 mps 713 mmHg 75%
06:00 -4°C° 0 mm 2 mps 713 mmHg 73%
07:00 -4°C° 0 mm 2 mps 713 mmHg 70%
08:00 -3°C° 0 mm 2 mps 713 mmHg 67%
09:00 -2°C° 0 mm 2 mps 713 mmHg 67%
10:00 +1°C° 0 mm 2 mps 713 mmHg 67%
11:00 +2°C° 0 mm 2 mps 713 mmHg 67%
12:00 +3°C° 0 mm 2 mps 713 mmHg 67%
13:00 +4°C° 0 mm 1 mps 713 mmHg 67%
14:00 +5°C° 0 mm 1 mps 712 mmHg 67%
15:00 +3°C° 0 mm 2 mps 712 mmHg 64%
16:00 +3°C° 0 mm 2 mps 712 mmHg 62%
17:00 +2°C° 0 mm 2 mps 712 mmHg 59%
18:00 +2°C° 0 mm 2 mps 712 mmHg 58%
19:00 +2°C° 0 mm 2 mps 712 mmHg 57%
20:00 +2°C° 0 mm 2 mps 712 mmHg 56%
21:00 +2°C° 0 mm 2 mps 711 mmHg 55%
22:00 +3°C° 0 mm 2 mps 711 mmHg 53%
23:00 +3°C° 0 mm 2 mps 711 mmHg 51%

Day after tomorrow, 27 November, Friday

Time Temperature Precipitation Wind Pressure Humidity
00:00 +3°C° 0 mm 2 mps 711 mmHg 52%
01:00 +4°C° 0 mm 2 mps 711 mmHg 52%
02:00 +4°C° 0 mm 2 mps 711 mmHg 53%
03:00 +4°C° 0 mm 2 mps 710 mmHg 52%
04:00 +4°C° 0 mm 2 mps 710 mmHg 52%
05:00 +4°C° 0 mm 2 mps 710 mmHg 52%
06:00 +4°C° 0 mm 2 mps 710 mmHg 53%
07:00 +5°C° 0 mm 2 mps 710 mmHg 53%
08:00 +4°C° 0 mm 3 mps 710 mmHg 54%
09:00 +6°C° 0 mm 2 mps 709 mmHg 60%
10:00 +6°C° 0 mm 2 mps 709 mmHg 65%
11:00 +7°C° 0 mm 2 mps 709 mmHg 70%
12:00 +7°C° 0 mm 2 mps 709 mmHg 71%
13:00 +7°C° 0 mm 2 mps 709 mmHg 72%
14:00 +9°C° 0 mm 1 mps 708 mmHg 72%
15:00 +8°C° 0 mm 1 mps 708 mmHg 69%
16:00 +8°C° 0 mm 1 mps 708 mmHg 65%
17:00 +7°C° 0 mm 1 mps 709 mmHg 61%
18:00 +6°C° 0 mm 2 mps 709 mmHg 62%
19:00 +6°C° 0 mm 2 mps 709 mmHg 63%
20:00 +5°C° 0 mm 3 mps 709 mmHg 63%
21:00 +5°C° 0 mm 3 mps 709 mmHg 65%
22:00 +5°C° 0 mm 4 mps 709 mmHg 68%
23:00 +5°C° 0 mm 4 mps 709 mmHg 70%

28 November, Saturday

Time Temperature Precipitation Wind Pressure Humidity
00:00 +4°C° 0 mm 4 mps 709 mmHg 68%
01:00 +3°C° 0 mm 4 mps 710 mmHg 66%
02:00 +3°C° 0 mm 3 mps 710 mmHg 64%
03:00 +1°C° 0.6 mm 4 mps 710 mmHg 73%
04:00 0°C° 0.6 mm 5 mps 711 mmHg 82%
05:00 -2°C° 0.6 mm 6 mps 711 mmHg 92%
06:00 -2°C° 3.9 mm 8 mps 713 mmHg 94%
07:00 -4°C° 3.9 mm 9 mps 714 mmHg 96%
08:00 -4°C° 3.9 mm 10 mps 716 mmHg 98%
09:00 -4°C° 1.9 mm 10 mps 717 mmHg 98%
10:00 -4°C° 1.9 mm 10 mps 718 mmHg 97%
11:00 -5°C° 1.9 mm 10 mps 719 mmHg 97%
12:00 -4°C° 0.5 mm 10 mps 719 mmHg 96%
13:00 -4°C° 0.5 mm 10 mps 720 mmHg 95%
14:00 -4°C° 0.5 mm 10 mps 720 mmHg 94%
15:00 -5°C° 0.1 mm 8 mps 720 mmHg 95%
16:00 -4°C° 0.1 mm 7 mps 721 mmHg 96%
17:00 -5°C° 0.1 mm 5 mps 721 mmHg 97%
18:00 -4°C° 0.1 mm 4 mps 722 mmHg 96%
19:00 -4°C° 0.1 mm 3 mps 722 mmHg 96%
20:00 -5°C° 0.1 mm 3 mps 723 mmHg 96%
21:00 -4°C° 0 mm 2 mps 723 mmHg 95%
22:00 -2°C° 0 mm 1 mps 723 mmHg 94%
23:00 -2°C° 0 mm 1 mps 723 mmHg 93%

29 November, Sunday

Time Temperature Precipitation Wind Pressure Humidity
00:00 -4°C° 0 mm 1 mps 723 mmHg 90%
01:00 -6°C° 0 mm 1 mps 722 mmHg 87%
02:00 -7°C° 0 mm 1 mps 722 mmHg 84%
03:00 -8°C° 0 mm 2 mps 722 mmHg 79%
04:00 -8°C° 0 mm 2 mps 722 mmHg 74%
05:00 -8°C° 0 mm 2 mps 722 mmHg 69%
06:00 -8°C° 0 mm 2 mps 722 mmHg 69%
07:00 -9°C° 0 mm 3 mps 721 mmHg 68%
08:00 -9°C° 0 mm 3 mps 721 mmHg 68%
09:00 -8°C° 0 mm 3 mps 721 mmHg 72%
10:00 -7°C° 0 mm 3 mps 721 mmHg 77%
11:00 -6°C° 0 mm 3 mps 721 mmHg 81%
12:00 -5°C° 0 mm 3 mps 721 mmHg 83%
13:00 -5°C° 0 mm 3 mps 720 mmHg 85%
14:00 -5°C° 0 mm 3 mps 720 mmHg 86%
15:00 -7°C° 0 mm 4 mps 720 mmHg 86%
16:00 -8°C° 0 mm 4 mps 719 mmHg 87%
17:00 -9°C° 0 mm 4 mps 719 mmHg 87%
18:00 -9°C° 0 mm 4 mps 719 mmHg 86%
19:00 -10°C° 0 mm 5 mps 719 mmHg 86%
20:00 -10°C° 0 mm 5 mps 719 mmHg 85%
21:00 -10°C° 0 mm 5 mps 719 mmHg 85%
22:00 -10°C° 0 mm 5 mps 718 mmHg 85%
23:00 -11°C° 0 mm 5 mps 718 mmHg 85%

30 November, Monday

Time Temperature Precipitation Wind Pressure Humidity
00:00 -10°C° 0 mm 5 mps 718 mmHg 85%
01:00 -10°C° 0 mm 5 mps 718 mmHg 85%
02:00 -10°C° 0 mm 5 mps 717 mmHg 85%
03:00 -10°C° 0 mm 5 mps 717 mmHg 85%
04:00 -10°C° 0 mm 5 mps 717 mmHg 84%
05:00 -10°C° 0 mm 6 mps 717 mmHg 84%
06:00 -10°C° 0 mm 6 mps 717 mmHg 82%
07:00 -10°C° 0 mm 6 mps 716 mmHg 79%
08:00 -10°C° 0 mm 6 mps 716 mmHg 77%
09:00 -9°C° 0 mm 6 mps 716 mmHg 75%
10:00 -8°C° 0 mm 6 mps 716 mmHg 73%
11:00 -6°C° 0 mm 6 mps 716 mmHg 71%
12:00 -6°C° 0 mm 6 mps 715 mmHg 71%
13:00 -5°C° 0 mm 6 mps 715 mmHg 71%
14:00 -5°C° 0 mm 6 mps 714 mmHg 71%
15:00 -6°C° 0 mm 6 mps 714 mmHg 73%
16:00 -8°C° 0 mm 6 mps 714 mmHg 74%
17:00 -9°C° 0 mm 7 mps 713 mmHg 75%
18:00 -9°C° 0 mm 6 mps 713 mmHg 75%
19:00 -10°C° 0 mm 6 mps 713 mmHg 74%
20:00 -10°C° 0 mm 6 mps 712 mmHg 74%
21:00 -10°C° 0 mm 6 mps 712 mmHg 72%
22:00 -10°C° 0 mm 6 mps 712 mmHg 70%
23:00 -10°C° 0 mm 6 mps 712 mmHg 68%
Show more